User: anonymous   Login
Location: Unspecified
(0.0000°N, 0.0000°E)
Time: 22:59:25
(UTC+00:00)
Language:

OBJECT Z - Orbit

View from above orbital plane
View from above orbital plane
View from above satellite
View from above satellite

Ground track
Ground track

The orbit is defined by the following mean orbital elements,

1 67271U          26145.46796487 +.00000000 +00000-0 +18999-3 0 00004
2 67271  97.3942 220.3098 0016624  83.1956 277.1171 15.21382169    08
Epoch (UTC): 25 May 2026 11:13:52
Eccentricity: 0.0016624
inclination: 97.3942°
perigee height: 490 km
apogee height: 513 km
right ascension of ascending node: 220.3098°
argument of perigee: 83.1956°
revolutions per day: 15.21382169
mean anomaly at epoch: 277.1171°

The dashed part of the orbit path shows where the satellite is in the earth's shadow,  

DLR